RH
15 12 11 10 10 10 9 9 9 9 9 9 9 9 9 8 7 7 8 8 8 8 9 10 9 8 12 29 46 30 25 22 24 21 25 33 27 22 27 20 26 32 24 23 23 25 28
14 13 12 10 10 10 9 9 8 9 9 9 9 7 6 5 5 5 5 4 5 6 7 9 10 9 14 28 33 24 29 28 26 28 38 38 36 32 27 24 25 34 32 30 24 26 28
15 13 12 11 11 10 10 10 10 10 9 8 6 5 5 5 5 4 3 2 2 3 5 8 10 12 28 42 29 29 30 28 25 22 41 25 23 32 32 28 35 32 39 30 30 27 29
14 14 15 14 12 11 11 11 10 9 7 6 5 5 5 5 4 3 3 2 3 5 8 12 15 18 39 24 25 34 37 41 27 23 22 22 22 35 33 34 29 32 28 34 29 31 34
13 14 15 14 13 12 11 11 10 7 6 5 4 4 4 3 3 3 3 5 6 9 14 16 23 34 47 34 49 34 35 48 34 39 27 26 31 38 38 37 32 29 35 30 34 31 37
13 12 14 15 14 12 11 10 8 6 4 4 4 3 3 3 3 4 5 5 9 12 15 15 19 35 34 47 36 30 32 28 46 46 45 45 44 42 43 38 45 26 26 22 21 32 33
16 14 13 13 13 12 11 9 6 5 4 4 3 3 3 4 5 5 5 12 28 35 19 32 41 28 34 42 31 50 39 49 47 42 37 37 42 46 32 28 26 25 27 24 22 20 31
21 20 16 14 13 12 10 8 5 4 4 3 3 4 5 6 7 7 7 14 14 32 42 34 36 40 34 34 38 46 38 42 34 40 29 36 43 30 28 29 28 28 31 32 26 21 20
30 23 18 15 14 13 8 6 5 4 3 3 4 6 7 8 9 8 9 11 17 20 54 41 36 42 38 42 40 46 46 42 37 37 30 36 29 27 29 29 30 31 32 29 27 21 22
21 28 22 16 15 11 7 5 4 3 3 4 6 7 8 8 20 10 14 13 21 24 52 40 40 44 44 37 44 40 40 41 35 36 37 32 30 33 33 34 28 31 24 26 29 33 46
24 20 22 17 15 9 5 4 3 3 4 5 6 7 8 9 9 12 10 14 24 31 70 35 39 36 26 38 41 52 38 48 40 37 34 34 29 34 37 29 24 25 31 34 32 37 42
21 21 18 17 15 8 4 4 3 3 4 6 6 7 7 11 12 10 8 21 26 72 70 39 33 32 28 23 29 38 43 43 41 40 35 37 29 34 37 38 35 30 30 31 32 36 77
28 30 22 16 13 7 4 3 3 3 5 6 7 6 7 10 19 11 12 28 61 70 23 35 38 30 26 24 26 25 36 43 48 63 45 34 27 35 36 41 30 32 46 78 63 83 60
39 35 25 13 10 6 3 2 3 4 5 6 6 6 7 10 11 11 17 46 40 28 27 37 33 29 24 32 26 22 35 46 42 43 50 62 63 37 31 41 47 46 45 79 64 55 42
54 45 27 11 6 4 3 2 3 4 5 6 5 5 7 10 12 14 40 53 66 40 38 37 30 29 28 29 33 21 39 46 48 47 57 62 40 25 35 30 32 34 42 38 55 50 71
57 54 26 9 5 3 2 2 3 4 5 5 4 9 32 14 14 17 41 36 45 45 43 37 31 25 24 32 30 23 35 39 46 41 42 49 66 28 29 24 22 33 28 59 56 73 56
58 55 24 8 5 3 2 3 4 5 5 4 5 38 35 14 14 32 46 51 50 45 52 50 40 34 33 37 38 29 38 48 40 40 38 36 46 34 29 23 27 30 42 37 39 51 68
64 56 20 8 4 3 2 3 4 5 5 4 8 42 28 14 47 30 46 49 49 46 44 48 45 45 43 44 40 37 48 48 40 36 39 40 47 56 27 18 20 23 26 25 56 50 45
64 59 16 7 4 2 3 4 4 4 3 2 27 25 20 12 42 41 46 47 46 40 43 42 49 45 42 44 37 42 54 49 46 33 32 26 30 42 23 36 26 27 22 26 30 40 51
67 48 10 6 3 2 3 4 4 3 2 2 17 46 28 24 27 33 42 45 52 46 44 40 42 38 38 41 40 45 47 50 43 30 40 32 33 38 56 44 34 34 29 28 34 80 62
75 21 21 24 19 4 3 4 3 2 2 3 12 38 38 38 30 31 28 39 46 48 42 38 37 34 30 28 34 30 29 30 32 50 41 33 47 40 36 35 36 35 29 28 39 48 70
82 55 57 42 9 4 4 3 2 2 2 4 30 30 30 36 32 31 39 37 38 43 39 42 38 32 24 22 23 21 25 27 31 45 34 32 52 39 47 37 35 31 28 27 38 52 56
75 71 68 50 18 5 3 2 2 2 2 6 9 20 28 41 32 28 39 40 41 46 43 34 29 31 32 42 41 41 39 37 34 34 37 39 50 50 56 37 38 42 68 64 57 62 74
78 84 83 49 8 4 3 3 2 2 2 4 5 13 26 39 34 40 44 40 43 38 46 38 33 30 58 44 42 44 44 43 39 40 38 51 52 50 67 58 81 86 58 78 77 76 82
92 93 73 17 6 5 5 4 5 4 3 3 8 10 27 40 42 45 41 47 50 43 43 43 53 59 50 51 46 34 40 43 46 43 48 45 60 74 79 62 46 80 73 74 79 88 85
96 77 20 9 8 7 7 6 7 6 5 7 7 8 22 41 46 41 43 38 43 45 49 58 57 39 56 46 36 44 34 31 40 50 40 47 60 86 72 81 74 93 64 49 68 99 68
95 48 11 10 10 8 9 9 8 8 6 5 9 14 22 61 60 47 48 45 46 40 53 49 47 58 52 50 44 44 43 40 51 46 59 59 70 84 79 77 92 74 58 47 91 89 66
73 15 12 18 14 11 12 12 10 9 7 5 8 11 21 76 81 69 58 63 53 45 59 58 66 61 56 67 51 55 56 56 51 37 49 50 69 81 81 84 93 53 46 69 76 62 66
19 35 24 20 18 16 12 12 12 11 10 8 15 24 24 49 96 69 73 69 63 72 59 65 59 61 80 90 78 76 59 47 53 73 54 82 79 88 76 84 59 50 63 61 62 70 74
Wind_Speed
5 4 3 5 6 7 7 8 9 10 11 11 12 12 12 13 13 13 13 12 12 12 11 10 9 6 2 1 2 3 4 2 2 2 3 2 3 5 5 5 2 5 6 3 7 5 7
2 2 3 3 4 5 6 6 7 8 9 11 12 12 13 13 13 13 13 13 12 12 11 10 7 3 2 2 4 3 3 3 2 2 3 2 2 3 6 4 2 4 8 12 9 10 7
4 4 4 5 5 5 5 5 5 6 7 7 9 10 11 12 14 14 14 13 13 12 11 9 4 1 3 4 3 1 1 1 1 1 1 3 1 2 6 5 4 6 6 8 15 12 4
4 5 7 8 7 8 8 8 7 7 7 7 8 8 10 11 12 13 14 13 12 11 9 5 1 4 1 1 1 0 1 3 2 1 2 3 1 2 3 4 4 3 5 4 6 11 3
4 4 5 7 8 8 9 9 9 8 8 9 10 11 11 12 13 14 13 12 10 6 4 3 4 4 3 2 2 2 1 1 3 5 4 3 0 2 1 3 4 6 4 7 3 7 4
4 4 6 6 8 9 10 11 10 9 9 10 11 12 12 13 13 13 12 10 5 5 4 5 7 2 3 1 2 2 4 3 2 4 5 1 3 2 3 4 4 4 4 6 5 7 6
7 5 7 8 8 9 8 8 10 9 9 9 10 11 12 12 12 11 10 5 3 3 6 4 1 1 2 4 3 4 3 3 3 3 3 3 2 6 9 7 6 4 7 9 8 4 7
9 9 8 8 9 9 9 8 8 9 9 10 11 11 12 12 12 8 7 2 2 2 2 4 5 4 4 4 2 4 4 3 1 5 4 2 5 5 4 5 4 6 9 9 9 10 3
11 11 11 10 10 10 9 8 8 9 10 10 11 11 12 13 11 8 6 4 2 2 2 2 2 2 1 5 3 2 4 3 4 5 4 5 5 2 3 6 6 8 8 8 10 10 5
11 12 12 12 12 11 10 9 9 9 10 11 12 12 12 12 6 10 5 5 2 1 2 3 3 1 1 1 2 3 3 3 3 3 6 7 6 3 5 7 7 7 6 7 8 8 4
12 12 12 12 13 12 9 9 10 9 10 10 12 12 12 10 8 6 6 3 1 3 3 1 3 0 3 2 1 1 3 0 3 6 2 5 4 4 6 5 7 3 7 7 6 8 9
13 12 12 12 12 11 10 10 9 10 10 10 11 11 11 9 7 7 4 2 1 2 4 3 1 1 3 1 2 0 1 2 3 4 6 9 8 3 2 9 6 6 6 9 9 5 5
13 12 12 13 12 11 11 10 10 10 10 10 11 11 10 8 6 6 3 2 2 2 1 3 1 1 3 1 2 3 5 7 4 6 4 7 5 5 2 5 5 4 4 4 4 2 9
13 12 13 13 13 11 10 10 11 10 11 11 10 10 9 7 6 3 1 1 2 2 3 1 1 4 2 4 3 1 3 4 9 5 3 3 2 4 7 5 5 6 4 3 5 4 7
15 13 12 13 13 11 10 10 10 11 11 11 11 9 9 6 3 0 2 1 2 5 3 4 3 3 4 3 2 1 5 4 4 7 4 5 3 2 7 3 2 3 4 4 5 9 6
16 14 14 13 13 12 11 10 10 10 11 11 10 8 8 4 1 2 1 2 2 4 4 2 2 1 4 4 3 1 6 1 3 6 9 2 6 6 3 5 6 5 6 4 4 5 13
16 14 15 13 12 11 11 10 10 9 10 9 7 5 3 2 2 1 2 3 4 4 4 5 5 2 3 3 2 4 5 3 3 4 5 4 4 3 9 2 5 5 4 4 2 3 4
16 15 14 13 13 12 11 10 9 9 8 6 2 3 2 2 2 2 2 4 2 3 4 2 2 3 3 3 3 2 3 5 5 3 3 4 4 4 7 12 6 10 5 3 1 4 5
17 16 14 13 13 12 11 10 9 8 6 3 1 4 3 4 2 3 4 3 6 1 4 2 3 3 1 1 2 3 5 7 6 4 4 3 2 5 2 4 3 6 5 5 6 5 10
18 16 12 12 12 12 11 10 9 8 6 5 2 1 0 3 1 2 5 4 3 4 2 3 2 0 1 2 2 1 2 3 4 2 1 1 3 5 5 6 5 7 9 8 6 1 6
20 16 12 10 11 14 12 11 8 7 5 6 4 1 1 1 2 3 3 4 5 3 2 0 2 2 1 1 1 3 3 4 7 3 5 2 4 6 7 6 8 12 11 8 4 4 2
22 19 14 10 11 13 12 11 8 6 6 9 4 3 3 3 1 5 1 2 4 3 1 2 2 5 1 2 3 3 2 3 4 7 3 4 4 5 4 10 11 11 8 11 1 3 5
21 18 16 13 12 14 12 10 6 5 7 7 7 6 5 3 2 2 1 4 4 10 3 4 4 4 3 3 4 5 5 8 8 4 4 3 3 4 6 7 8 8 1 1 3 4 2
19 17 17 11 15 11 7 5 4 3 5 9 6 8 4 2 2 1 4 5 7 2 3 4 2 2 2 3 7 8 9 10 12 11 11 4 4 5 6 6 8 1 6 5 3 5 2
19 19 12 13 12 7 3 1 2 1 3 5 9 8 5 4 10 7 11 11 10 10 8 7 4 3 2 3 3 4 3 3 7 6 7 9 2 3 2 5 6 4 3 3 3 4 6
20 14 13 11 7 5 3 1 3 2 3 4 8 7 7 11 4 10 9 9 4 4 3 3 1 3 3 2 1 3 2 3 2 5 7 6 5 3 3 6 8 3 5 12 7 2 11
17 15 16 12 9 6 4 3 5 5 5 4 7 9 6 10 7 6 5 4 3 3 3 4 2 0 0 2 3 3 2 3 2 3 4 2 3 7 8 6 3 2 14 12 4 5 17
19 19 16 14 10 9 6 5 6 6 5 3 8 6 5 9 13 9 12 12 5 4 2 3 2 1 1 1 1 1 0 1 2 2 3 1 2 2 3 2 3 12 0 2 4 16 21
23 21 18 14 11 9 8 6 6 6 7 5 12 11 13 12 12 16 15 12 12 9 5 4 2 4 7 2 3 3 3 3 3 2 4 1 2 1 1 1 8 11 8 7 14 18 21
Wind_Direction
43 45 30 20 16 11 2 358 352 348 346 343 342 341 339 338 337 336 335 332 332 333 336 334 326 321 316 49 179 261 227 258 297 357 27 11 315 305 277 354 80 229 292 337 275 262 257
16 344 10 358 3 0 352 352 348 345 345 344 341 341 341 340 339 338 335 329 325 326 328 328 323 303 189 213 268 275 253 267 303 63 1 51 342 305 290 295 278 354 317 286 276 241 240
314 339 333 333 337 329 330 325 333 339 341 338 336 340 340 341 338 336 333 331 327 325 326 326 312 228 101 217 260 249 258 295 311 303 104 285 270 63 334 273 344 294 300 277 227 215 251
321 330 331 331 329 328 324 329 329 329 330 330 333 337 336 337 335 332 330 328 326 325 332 341 59 131 107 327 184 97 45 326 346 336 289 305 271 244 217 329 254 246 236 298 347 149 155
287 309 318 324 318 316 317 320 324 329 330 332 334 336 338 338 336 333 332 333 335 348 26 63 94 103 97 78 76 19 117 269 299 327 323 311 286 271 185 232 273 197 238 241 174 184 131
260 286 296 306 310 316 325 325 322 323 331 336 339 338 338 340 340 336 339 339 15 46 70 72 76 128 81 79 326 352 322 310 313 306 311 219 230 232 222 217 224 306 282 298 273 197 206
273 270 286 298 305 310 317 316 315 322 328 331 333 336 337 339 340 341 350 359 349 32 40 68 3 51 64 312 18 2 316 332 323 274 271 173 271 227 241 223 250 348 289 275 280 250 205
282 285 284 286 298 305 309 309 314 316 322 327 333 337 338 339 340 348 355 41 31 162 162 53 66 57 53 75 148 25 44 336 254 285 159 203 232 22 17 8 342 289 273 276 279 269 289
286 290 294 297 300 300 302 301 309 315 321 327 332 335 338 338 338 347 19 40 50 135 271 104 118 61 76 68 55 10 37 341 312 297 265 265 335 87 356 306 274 258 253 273 279 291 283
275 290 299 304 305 305 307 305 309 316 323 325 333 335 339 340 345 344 12 17 29 170 178 136 149 18 22 79 154 11 32 34 242 325 333 268 68 354 298 270 270 286 350 339 325 338 260
265 279 297 305 308 308 301 302 307 311 317 326 332 335 336 339 329 339 333 355 43 125 357 62 106 179 15 357 155 290 38 143 289 321 37 272 353 353 303 285 335 260 18 317 310 297 311
265 276 286 294 301 301 293 294 297 305 314 322 328 332 333 336 335 340 341 342 111 57 251 124 68 292 238 126 115 208 201 50 288 279 231 256 264 205 308 325 293 341 308 281 252 233 271
267 280 287 289 294 293 290 294 299 304 310 319 326 327 326 338 322 335 352 360 352 162 71 100 37 345 334 45 145 3 72 40 33 16 359 333 273 112 79 287 234 183 292 319 308 162 235
263 275 288 289 291 288 284 288 295 304 309 316 320 321 318 324 330 330 36 270 257 11 81 197 256 275 277 1 114 71 206 157 49 345 294 309 307 22 20 39 324 297 285 201 267 237 286
266 274 281 285 290 279 275 283 293 305 310 317 317 317 305 320 318 205 84 259 314 20 9 347 237 253 144 149 319 158 62 43 47 11 355 352 250 8 76 355 348 337 338 346 293 286 273
263 276 281 283 287 279 278 284 292 305 312 318 315 317 294 311 249 158 253 216 100 42 325 261 284 2 339 95 310 266 144 37 92 35 338 62 292 261 60 4 298 72 346 341 310 278 261
258 267 275 278 282 278 278 284 291 301 309 316 317 306 275 299 174 165 246 58 113 68 352 355 359 315 81 5 348 306 68 70 46 23 307 14 225 332 3 268 11 335 353 353 338 272 290
253 262 269 274 277 271 274 281 288 298 302 307 297 266 298 208 286 256 44 24 2 97 33 34 14 15 343 49 302 271 72 68 66 9 343 62 299 283 277 292 78 69 44 23 152 307 321
248 256 261 269 271 267 268 274 284 290 291 281 196 282 278 196 248 153 126 81 42 35 26 9 112 5 340 73 299 32 103 131 78 29 25 31 277 314 172 53 86 74 1 336 285 262 263
239 248 256 272 277 275 274 274 278 281 276 226 200 225 159 159 278 290 145 158 122 39 67 35 103 249 185 182 98 56 177 140 96 346 299 50 257 220 246 314 327 302 309 288 268 166 300
235 234 226 248 273 274 273 274 278 273 257 197 197 174 185 128 76 58 52 125 132 148 91 102 112 328 356 200 187 216 60 143 142 147 184 270 256 263 273 310 301 282 276 291 299 311 232
229 231 235 240 259 268 267 271 274 267 230 199 191 163 97 82 86 120 26 59 148 104 327 152 270 129 231 293 18 22 92 156 254 164 237 184 273 299 277 265 265 276 281 291 282 307 284
221 230 238 239 257 261 262 266 274 259 215 203 207 185 156 148 146 263 91 113 92 121 59 51 98 157 198 50 28 341 328 307 298 286 266 230 252 293 273 302 318 286 319 14 320 77 314
216 228 236 234 250 250 257 276 285 257 226 224 216 166 155 125 73 42 114 114 117 54 124 137 116 322 56 313 304 269 249 254 252 249 240 261 267 265 280 291 278 92 48 84 14 281 63
222 230 219 232 235 234 240 274 343 253 215 214 199 170 135 105 115 103 119 109 110 91 91 123 66 72 348 332 270 259 190 205 218 218 209 214 265 290 249 279 301 113 26 23 88 307 42
219 201 212 211 206 196 189 119 68 72 117 158 176 179 133 122 41 135 128 159 144 125 156 109 90 11 41 287 263 253 259 54 149 158 190 195 193 156 301 280 281 70 5 331 93 254 5
192 195 198 191 191 176 161 110 86 71 86 128 138 145 134 104 85 129 94 116 60 76 81 132 140 250 30 263 249 248 277 61 257 293 157 215 231 233 252 280 104 22 319 299 64 265 335
179 191 185 180 175 158 134 106 92 88 87 104 117 133 157 106 76 94 94 81 90 34 128 132 118 243 240 233 339 317 131 93 341 297 12 352 348 312 349 327 289 11 339 75 321 336 337
182 178 174 165 163 141 126 118 105 103 97 91 95 94 117 104 114 102 94 91 98 84 87 44 69 36 21 2 18 360 341 356 347 280 37 52 39 286 82 135 91 6 92 47 354 341 332